Tracking 29967 objects as of 5-Dec-2024
HD Live streaming from Space Station
objects crossing your sky now

STARLINK-31076

Track STARLINK-31076 now!
10-day predictions
STARLINK-31076 is classified as:


NORAD ID: 58736
Int'l Code: 2024-005J
Perigee: 565.5 km
Apogee: 567.0 km
Inclination: 43.0 °
Period: 95.8 minutes
Semi major axis: 6937 km
RCS: Unknown
Launch date: January 7, 2024
Source: United States (US)
Launch site: AIR FORCE EASTERN TEST RANGE (AFETR)
Your satellite tracking list
Your tracking list is empty




NASA's NSSDC Master Catalog

Two Line Element Set (TLE):
1 58736U 24005J   24340.29769454  .00000191  00000-0  29171-4 0  9994
2 58736  43.0032 198.1285 0001067 267.4326  92.6394 15.02536869 51353
Source of the keplerian elements: AFSPC